Location: Miles
(41.4492°N, 81.6087°W)
Time: 08:12:27
(UTC+00:00)

Vanguard 1 Rocket - Pass Details

Date: 20 September 2024
Orbit: 650 x 4218 km, 34.3° (Epoch: 05 October)

Event Time Altitude Azimuth Distance (km) Brightness Sun altitude
Rises 09:00:11 0° 250° (WSW) 5,060 - -24.8°
Reaches altitude 10° 09:02:51 10° 247° (WSW) 4,410 - -24.3°
Exits shadow 09:07:36 32° 238° (WSW) 3,510 9.7 -23.5°
Maximum altitude 09:16:03 67° 168° (SSE) 3,215 10.0 -22.1°
Drops below altitude 10° 09:39:47 10° 93° (E) 7,341 13.1 -17.9°
Sets 09:45:55 0° 92° (E) 8,463 13.7 -16.8°
